Location: La Fredeussais
(48.1780°N, 1.3980°W)
Time: 02:05:35
(UTC+00:00)

ISS - Pass Details

Date: 03 August 2021
Orbit: 419 x 423 km, 51.6° (Epoch: 19 September)

Event Time Altitude Azimuth Distance (km) Brightness Sun altitude
Rises 20:12:33 0° 283° (WNW) 2,378 1.6 -5.7°
Reaches altitude 10° 20:15:27 10° 256° (WSW) 1,507 -0.3 -6.1°
Maximum altitude 20:17:11 13° 225° (SW) 1,309 -1.1 -6.3°
Drops below altitude 10° 20:18:55 10° 194° (SSW) 1,500 -1.2 -6.6°
Enters shadow 20:21:19 - 170° (S) 2,183 -0.6 -6.9°
